Location: Newark
(44.6028°N, 124.0883°W)
Time: 03:03:57
(UTC+00:00)

A-11 Canister half - Pass Details

Date: 29 October 2019
Orbit: 1514 x 1686 km, 47.2° (Epoch: 16 November)

Event Time Altitude Azimuth Distance (km) Brightness Sun altitude
Exits shadow 12:30:01 39° 288° (WNW) 2,267 9.4 -25.4°
Maximum altitude 12:34:27 87° 201° (SSW) 1,599 8.9 -24.6°
Drops below altitude 10° 12:43:58 10° 113° (ESE) 3,732 11.9 -22.9°
Sets 12:46:58 0° 114° (ESE) 4,695 12.6 -22.4°
